Location: Giessen
(50.5800°N, 8.7028°E)
Time: 23:40:25
(UTC+02:00)

ISS - Visible Passes

Search period start: 28 March 2017 00:00
Search period end: 07 April 2017 00:00
Orbit: 399 x 409 km, 51.6° (Epoch: 29 March)

Date Brightness Start Highest point End Pass type
(mag) Time Alt. Az. Time Alt. Az. Time Alt. Az.
28 Mar -2.3 20:59:12 10° S 21:01:33 18° SE 21:01:55 18° SE visible
28 Mar -1.0 22:34:21 10° WSW 22:34:38 12° WSW 22:34:38 12° WSW visible
29 Mar -3.5 21:42:08 10° SW 21:45:05 47° S 21:45:05 47° S visible
30 Mar -3.0 20:50:04 10° SW 20:53:01 32° SSE 20:55:19 15° E visible
30 Mar -2.4 22:26:02 10° W 22:28:00 34° W 22:28:00 34° W visible
31 Mar -4.0 21:33:39 10° WSW 21:36:55 77° SSE 21:38:02 38° E visible
31 Mar -0.8 23:10:11 10° W 23:10:43 14° W 23:10:43 14° W visible
01 Apr -3.7 20:41:21 10° SW 20:44:33 55° SSE 20:47:46 10° ENE visible
01 Apr -3.4 22:17:44 10° W 22:20:37 62° WNW 22:20:37 62° WNW visible
02 Apr -3.8 21:25:17 10° W 21:28:33 80° NNW 21:30:24 24° ENE visible
02 Apr -1.4 23:01:50 10° WNW 23:03:04 21° WNW 23:03:04 21° WNW visible
03 Apr -3.8 20:32:51 10° WSW 20:36:06 84° SSE 20:39:24 10° ENE visible
03 Apr -3.8 22:09:24 10° W 22:12:40 72° N 22:12:46 71° NNE visible
04 Apr -3.7 21:16:54 10° W 21:20:11 71° N 21:22:25 19° E visible
04 Apr -1.8 22:53:26 10° WNW 22:55:04 27° W 22:55:04 27° W visible
05 Apr -3.9 22:00:58 10° WNW 22:04:15 86° NNE 22:04:40 65° E visible
06 Apr -3.7 21:08:29 10° W 21:11:45 75° N 21:14:15 16° E visible
06 Apr -2.1 22:45:01 10° W 22:46:54 29° W 22:46:54 29° W visible
